| time (UTC) | temp F | wind direction | speed knots | gust knots | rain 1hr in | rain 24hr in | rain mn in | humidity % | barometer mb |
| 20260507063027 | 48 | 336 | 0.0 | 0.0 | 0.00 | 0.35 | 0.00 | 93 | 1007.7 |
| 20260507062513 | 48 | 337 | 0.0 | 0.0 | 0.00 | 0.35 | 0.00 | 93 | 1007.6 |
| 20260507062012 | 48 | 336 | 0.0 | 0.0 | 0.00 | 0.35 | 0.00 | 92 | 1007.4 |
| 20260507061521 | 48 | 11 | 0.0 | 0.0 | 0.00 | 0.35 | 0.00 | 92 | 1007.6 |
| 20260507061010 | 48 | 22 | 0.0 | 0.0 | 0.00 | 0.35 | 0.00 | 92 | 1007.7 |
| 20260507060504 | 48 | 23 | 0.0 | 0.0 | 0.00 | 0.35 | 0.00 | 91 | 1007.5 |
| 20260507060018 | 48 | 23 | 0.0 | 0.0 | 0.00 | 0.35 | 0.00 | 91 | 1007.8 |
| 20260507055506 | 48 | 23 | 0.0 | 0.0 | 0.00 | 0.35 | 0.00 | 91 | 1007.9 |
| 20260507055008 | 48 | 23 | 0.0 | 0.0 | 0.00 | 0.35 | 0.00 | 91 | 1007.6 |
| 20260507054522 | 48 | 23 | 0.0 | 3.5 | 0.00 | 0.35 | 0.00 | 90 | 1007.9 |
| 20260507054006 | 48 | 357 | 0.0 | 3.5 | 0.00 | 0.35 | 0.00 | 90 | 1008.1 |
| 20260507053511 | 48 | 358 | 0.9 | 3.5 | 0.00 | 0.35 | 0.00 | 90 | 1008.2 |
| 20260507053032 | 48 | 346 | 0.9 | 3.5 | 0.00 | 0.35 | 0.00 | 90 | 1008.3 |
| 20260507052510 | 48 | 337 | 1.7 | 3.5 | 0.00 | 0.35 | 0.00 | 90 | 1008.2 |
| 20260507052003 | 48 | 351 | 1.7 | 3.5 | 0.00 | 0.35 | 0.00 | 90 | 1008.3 |
| 20260507051511 | 48 | 13 | 0.9 | 4.3 | 0.00 | 0.35 | 0.00 | 90 | 1008.4 |
| 20260507051005 | 48 | 1 | 2.6 | 4.3 | 0.00 | 0.35 | 0.00 | 91 | 1008.6 |
| 20260507050501 | 48 | 312 | 0.0 | 1.7 | 0.00 | 0.35 | 0.00 | 91 | 1008.7 |
| 20260507050003 | 48 | 342 | 0.0 | 1.7 | 0.00 | 0.35 | 0.00 | 91 | 1008.6 |
| 20260507045503 | 48 | 352 | 0.0 | 0.9 | 0.00 | 0.35 | 0.00 | 90 | 1008.5 |
| 20260507045003 | 49 | 352 | 0.0 | 1.7 | 0.00 | 0.35 | 0.00 | 90 | 1008.5 |
| 20260507044507 | 49 | 344 | 0.9 | 3.5 | 0.00 | 0.35 | 0.00 | 89 | 1008.7 |
| 20260507044002 | 49 | 351 | 0.9 | 3.5 | 0.00 | 0.35 | 0.00 | 90 | 1008.4 |
| 20260507043504 | 49 | 348 | 0.0 | 3.5 | 0.00 | 0.35 | 0.00 | 90 | 1008.2 |
| 20260507043006 | 49 | 331 | 0.9 | 4.3 | 0.00 | 0.35 | 0.00 | 90 | 1008.3 |
| 20260507042503 | 49 | 331 | 1.7 | 4.3 | 0.00 | 0.35 | 0.00 | 90 | 1008.3 |
| 20260507042003 | 49 | 332 | 0.9 | 3.5 | 0.00 | 0.35 | 0.00 | 89 | 1008.2 |
| 20260507041508 | 49 | 336 | 0.9 | 1.7 | 0.00 | 0.35 | 0.00 | 90 | 1008.1 |
| 20260507041002 | 49 | 59 | 0.0 | 2.6 | 0.00 | 0.35 | 0.00 | 90 | 1008.1 |
| 20260507040504 | 49 | 356 | 0.9 | 2.6 | 0.00 | 0.35 | 0.00 | 90 | 1008.2 |
| 20260507040013 | 49 | 347 | 0.0 | 3.5 | 0.00 | 0.35 | 0.00 | 90 | 1008.1 |
| 20260507035502 | 49 | 351 | 0.9 | 3.5 | 0.00 | 0.35 | 0.35 | 90 | 1008.2 |
| 20260507035005 | 49 | 13 | 0.9 | 2.6 | 0.00 | 0.35 | 0.35 | 91 | 1008.2 |
| 20260507034503 | 49 | 19 | 0.0 | 4.3 | 0.00 | 0.35 | 0.35 | 91 | 1008.3 |
| 20260507034001 | 49 | 326 | 0.0 | 4.3 | 0.00 | 0.35 | 0.35 | 91 | 1008.6 |
| 20260507033503 | 50 | 342 | 1.7 | 4.3 | 0.00 | 0.35 | 0.35 | 91 | 1008.3 |
| 20260507033003 | 50 | 347 | 0.9 | 4.3 | 0.00 | 0.35 | 0.35 | 92 | 1008.5 |
| 20260507032503 | 50 | 2 | 0.0 | 2.6 | 0.00 | 0.35 | 0.35 | 92 | 1008.3 |
| 20260507032002 | 50 | 352 | 0.0 | 3.5 | 0.00 | 0.35 | 0.35 | 91 | 1008.3 |
| 20260507031508 | 50 | 316 | 0.0 | 5.2 | 0.00 | 0.35 | 0.35 | 91 | 1008.2 |
| 20260507031005 | 50 | 325 | 0.9 | 5.2 | 0.00 | 0.35 | 0.35 | 91 | 1008.3 |
| 20260507030503 | 50 | 340 | 2.6 | 4.3 | 0.01 | 0.35 | 0.35 | 90 | 1008.1 |
| 20260507030013 | 50 | 333 | 2.6 | 6.1 | 0.02 | 0.35 | 0.35 | 90 | 1008.1 |
| 20260507025505 | 51 | 342 | 2.6 | 6.1 | 0.05 | 0.35 | 0.35 | 90 | 1008.2 |
| 20260507025007 | 51 | 327 | 2.6 | 5.2 | 0.06 | 0.35 | 0.35 | 90 | 1008.1 |
| 20260507024518 | 51 | 326 | 1.7 | 5.2 | 0.06 | 0.35 | 0.35 | 90 | 1007.9 |
| 20260507024009 | 51 | 336 | 1.7 | 7.8 | 0.06 | 0.35 | 0.35 | 90 | 1007.8 |
| 20260507023502 | 52 | 315 | 1.7 | 7.8 | 0.06 | 0.35 | 0.35 | 90 | 1007.9 |
| 20260507023003 | 52 | 349 | 2.6 | 7.0 | 0.06 | 0.35 | 0.35 | 91 | 1008.0 |
| 20260507022503 | 53 | 6 | 2.6 | 7.0 | 0.06 | 0.35 | 0.35 | 91 | 1008.0 |
| 20260507022004 | 53 | 342 | 3.5 | 7.0 | 0.06 | 0.35 | 0.35 | 92 | 1007.8 |
| 20260507021503 | 54 | 357 | 1.7 | 4.3 | 0.06 | 0.35 | 0.35 | 92 | 1007.8 |
| 20260507021003 | 54 | 331 | 0.0 | 4.3 | 0.06 | 0.35 | 0.35 | 92 | 1007.6 |
| 20260507020503 | 55 | 32 | 0.9 | 4.3 | 0.05 | 0.34 | 0.34 | 92 | 1007.5 |
| 20260507020010 | 55 | 347 | 2.6 | 4.3 | 0.04 | 0.33 | 0.33 | 92 | 1007.5 |
| 20260507015503 | 55 | 345 | 0.0 | 1.7 | 0.01 | 0.30 | 0.30 | 92 | 1007.6 |
| 20260507015003 | 55 | 242 | 0.0 | 0.9 | 0.00 | 0.29 | 0.29 | 93 | 1007.5 |
| 20260507014520 | 55 | 243 | 0.0 | 2.6 | 0.01 | 0.29 | 0.29 | 93 | 1007.1 |
| 20260507014007 | 56 | 243 | 0.0 | 2.6 | 0.01 | 0.29 | 0.29 | 93 | 1007.0 |
| 20260507013506 | 56 | 240 | 1.7 | 2.6 | 0.01 | 0.29 | 0.29 | 93 | 1006.9 |
| 20260507013021 | 56 | 236 | 0.0 | 1.7 | 0.01 | 0.29 | 0.29 | 93 | 1006.8 |
| 20260507012506 | 56 | 243 | 0.0 | 2.6 | 0.01 | 0.29 | 0.29 | 93 | 1006.8 |
| 20260507012004 | 57 | 206 | 0.9 | 2.6 | 0.03 | 0.29 | 0.29 | 92 | 1006.6 |
| 20260507011505 | 57 | 229 | 0.0 | 1.7 | 0.04 | 0.29 | 0.29 | 92 | 1006.5 |
| 20260507011004 | 57 | 187 | 0.0 | 0.9 | 0.05 | 0.29 | 0.29 | 92 | 1006.3 |
| 20260507010503 | 58 | 108 | 0.0 | 1.7 | 0.05 | 0.29 | 0.29 | 92 | 1006.2 |
| 20260507010024 | 58 | 248 | 0.0 | 1.7 | 0.05 | 0.29 | 0.29 | 91 | 1006.2 |
| 20260507005507 | 58 | 226 | 0.9 | 1.7 | 0.05 | 0.29 | 0.29 | 91 | 1006.1 |
| 20260507005003 | 58 | 79 | 0.0 | 1.7 | 0.05 | 0.29 | 0.29 | 91 | 1006.2 |
| 20260507004512 | 58 | 216 | 0.0 | 1.7 | 0.04 | 0.28 | 0.28 | 92 | 1006.3 |
| 20260507004005 | 58 | 131 | 0.0 | 1.7 | 0.04 | 0.28 | 0.28 | 92 | 1006.0 |
| 20260507003507 | 59 | 41 | 0.0 | 1.7 | 0.04 | 0.28 | 0.28 | 93 | 1006.0 |
| 20260507003014 | 59 | 231 | 0.0 | 3.5 | 0.04 | 0.28 | 0.28 | 93 | 1006.2 |
| 20260507002508 | 59 | 266 | 0.0 | 6.1 | 0.04 | 0.28 | 0.28 | 93 | 1006.1 |
| 20260507002009 | 59 | 227 | 0.0 | 6.1 | 0.02 | 0.26 | 0.26 | 93 | 1005.9 |
| 20260507001523 | 59 | 257 | 0.9 | 5.2 | 0.01 | 0.25 | 0.25 | 93 | 1005.7 |
| 20260507001006 | 59 | 252 | 2.6 | 7.0 | 0.00 | 0.24 | 0.24 | 92 | 1005.4 |
| 20260507000508 | 59 | 240 | 1.7 | 7.8 | 0.00 | 0.24 | 0.24 | 92 | 1005.2 |
| 20260507000004 | 59 | 184 | 4.3 | 7.8 | 0.00 | 0.24 | 0.24 | 92 | 1005.1 |
| 20260506235504 | 59 | 149 | 4.3 | 7.0 | 0.00 | 0.24 | 0.24 | 92 | 1005.1 |
| 20260506235004 | 59 | 207 | 3.5 | 7.8 | 0.00 | 0.24 | 0.24 | 92 | 1004.9 |
| 20260506234508 | 59 | 186 | 4.3 | 7.8 | 0.00 | 0.24 | 0.24 | 92 | 1004.9 |
| 20260506234005 | 59 | 208 | 5.2 | 7.0 | 0.00 | 0.24 | 0.24 | 91 | 1005.0 |
| 20260506233503 | 59 | 204 | 3.5 | 7.8 | 0.01 | 0.25 | 0.24 | 92 | 1005.0 |
| 20260506233013 | 59 | 167 | 4.3 | 7.8 | 0.01 | 0.25 | 0.24 | 91 | 1005.0 |
| 20260506232506 | 59 | 200 | 3.5 | 7.0 | 0.01 | 0.25 | 0.24 | 91 | 1004.9 |
| 20260506232008 | 59 | 248 | 3.5 | 7.0 | 0.01 | 0.25 | 0.24 | 92 | 1004.9 |
| 20260506231516 | 59 | 204 | 3.5 | 7.0 | 0.01 | 0.25 | 0.24 | 92 | 1004.9 |
| 20260506231007 | 59 | 175 | 3.5 | 6.1 | 0.01 | 0.25 | 0.24 | 92 | 1004.8 |
| 20260506230507 | 59 | 148 | 2.6 | 6.1 | 0.01 | 0.25 | 0.24 | 92 | 1004.8 |
| 20260506230024 | 59 | 155 | 1.7 | 6.1 | 0.01 | 0.25 | 0.24 | 92 | 1004.8 |
| 20260506225510 | 59 | 190 | 2.6 | 7.0 | 0.01 | 0.25 | 0.24 | 92 | 1004.8 |
| 20260506225008 | 59 | 154 | 4.3 | 8.7 | 0.01 | 0.25 | 0.24 | 92 | 1004.9 |
| 20260506224516 | 59 | 146 | 5.2 | 8.7 | 0.01 | 0.25 | 0.24 | 92 | 1004.8 |
| 20260506224004 | 59 | 182 | 2.6 | 7.0 | 0.01 | 0.25 | 0.24 | 92 | 1004.8 |
| 20260506223506 | 59 | 159 | 3.5 | 7.8 | 0.00 | 0.24 | 0.23 | 92 | 1004.8 |
| 20260506223009 | 59 | 188 | 2.6 | 8.7 | 0.00 | 0.24 | 0.23 | 92 | 1004.8 |
| 20260506222505 | 60 | 178 | 3.5 | 8.7 | 0.00 | 0.24 | 0.23 | 91 | 1004.8 |
| 20260506222005 | 60 | 166 | 4.3 | 7.8 | 0.00 | 0.24 | 0.23 | 91 | 1004.8 |
| 20260506221512 | 60 | 172 | 3.5 | 7.8 | 0.00 | 0.24 | 0.23 | 91 | 1004.9 |
| 20260506221007 | 60 | 203 | 3.5 | 10.4 | 0.00 | 0.24 | 0.23 | 91 | 1004.9 |
| 20260506220508 | 60 | 129 | 3.5 | 12.2 | 0.00 | 0.24 | 0.23 | 90 | 1004.9 |
| 20260506220032 | 60 | 214 | 6.1 | 12.2 | 0.00 | 0.24 | 0.23 | 90 | 1005.0 |
| 20260506215508 | 60 | 163 | 3.5 | 9.6 | 0.00 | 0.24 | 0.23 | 90 | 1004.9 |
| 20260506215006 | 60 | 136 | 6.1 | 8.7 | 0.00 | 0.24 | 0.23 | 90 | 1004.9 |
| 20260506214524 | 60 | 233 | 4.3 | 9.6 | 0.00 | 0.24 | 0.23 | 91 | 1004.9 |
| 20260506214010 | 60 | 162 | 2.6 | 9.6 | 0.00 | 0.24 | 0.23 | 91 | 1004.9 |
| 20260506213511 | 60 | 120 | 4.3 | 9.6 | 0.00 | 0.24 | 0.23 | 91 | 1004.9 |
| 20260506213007 | 60 | 193 | 4.3 | 11.3 | 0.00 | 0.24 | 0.23 | 90 | 1004.9 |
| 20260506212505 | 60 | 207 | 7.8 | 11.3 | 0.00 | 0.24 | 0.23 | 90 | 1005.0 |
| 20260506212005 | 60 | 198 | 5.2 | 11.3 | 0.00 | 0.24 | 0.23 | 90 | 1005.0 |
| 20260506211518 | 60 | 199 | 2.6 | 11.3 | 0.00 | 0.24 | 0.23 | 90 | 1004.9 |
| 20260506211004 | 60 | 133 | 4.3 | 12.2 | 0.00 | 0.24 | 0.23 | 90 | 1005.0 |
| 20260506210506 | 60 | 119 | 6.1 | 13.9 | 0.00 | 0.24 | 0.23 | 90 | 1004.9 |
| 20260506210017 | 60 | 209 | 6.1 | 13.9 | 0.00 | 0.24 | 0.23 | 90 | 1004.8 |
| 20260506205507 | 60 | 239 | 7.0 | 11.3 | 0.00 | 0.24 | 0.23 | 90 | 1004.8 |
| 20260506205010 | 60 | 207 | 3.5 | 9.6 | 0.00 | 0.24 | 0.23 | 90 | 1004.9 |
| 20260506204522 | 60 | 185 | 4.3 | 13.0 | 0.00 | 0.24 | 0.23 | 90 | 1004.9 |
| 20260506204008 | 60 | 174 | 6.1 | 13.0 | 0.00 | 0.24 | 0.23 | 90 | 1005.0 |
| 20260506203515 | 60 | 236 | 5.2 | 12.2 | 0.00 | 0.24 | 0.23 | 91 | 1005.1 |
| 20260506203025 | 60 | 191 | 4.3 | 11.3 | 0.01 | 0.24 | 0.23 | 91 | 1005.1 |
| 20260506202509 | 60 | 219 | 4.3 | 10.4 | 0.01 | 0.24 | 0.23 | 91 | 1005.2 |
| 20260506202004 | 60 | 228 | 5.2 | 10.4 | 0.02 | 0.24 | 0.23 | 91 | 1005.2 |
| 20260506201506 | 60 | 184 | 7.0 | 10.4 | 0.02 | 0.24 | 0.23 | 91 | 1005.3 |
| 20260506201005 | 60 | 205 | 4.3 | 13.0 | 0.02 | 0.24 | 0.23 | 91 | 1005.2 |
| 20260506200504 | 60 | 203 | 6.1 | 13.0 | 0.03 | 0.24 | 0.23 | 91 | 1005.3 |
| 20260506200012 | 60 | 154 | 6.1 | 13.0 | 0.03 | 0.24 | 0.23 | 91 | 1005.4 |
| 20260506195502 | 60 | 215 | 6.1 | 12.2 | 0.04 | 0.24 | 0.23 | 91 | 1005.4 |
| 20260506195004 | 60 | 148 | 4.3 | 11.3 | 0.04 | 0.24 | 0.23 | 91 | 1005.6 |
| 20260506194504 | 60 | 222 | 7.0 | 14.8 | 0.04 | 0.24 | 0.23 | 91 | 1005.6 |
| 20260506194006 | 60 | 195 | 6.1 | 14.8 | 0.05 | 0.24 | 0.23 | 91 | 1005.6 |
| 20260506193502 | 60 | 237 | 6.1 | 14.8 | 0.06 | 0.24 | 0.23 | 91 | 1005.7 |
| 20260506193005 | 60 | 188 | 7.8 | 15.6 | 0.06 | 0.23 | 0.22 | 90 | 1005.7 |
| 20260506192504 | 60 | 229 | 8.7 | 15.6 | 0.07 | 0.23 | 0.22 | 90 | 1005.8 |
| 20260506192004 | 61 | 203 | 5.2 | 13.9 | 0.06 | 0.22 | 0.21 | 90 | 1005.8 |
| 20260506191506 | 61 | 218 | 7.8 | 13.9 | 0.06 | 0.22 | 0.21 | 90 | 1005.7 |
| 20260506191004 | 61 | 207 | 7.0 | 12.2 | 0.07 | 0.22 | 0.21 | 90 | 1005.7 |
| 20260506190505 | 61 | 176 | 5.2 | 10.4 | 0.06 | 0.21 | 0.20 | 90 | 1005.6 |
| 20260506190007 | 61 | 162 | 5.2 | 12.2 | 0.06 | 0.21 | 0.20 | 90 | 1005.7 |
| 20260506185504 | 61 | 193 | 7.0 | 12.2 | 0.06 | 0.20 | 0.19 | 90 | 1005.8 |
| 20260506185003 | 61 | 205 | 6.1 | 9.6 | 0.07 | 0.20 | 0.19 | 90 | 1005.8 |
| 20260506184516 | 61 | 150 | 5.2 | 7.8 | 0.08 | 0.20 | 0.19 | 91 | 1005.8 |
| 20260506184002 | 61 | 127 | 4.3 | 6.1 | 0.08 | 0.19 | 0.18 | 91 | 1005.8 |
| 20260506183504 | 62 | 194 | 3.5 | 5.2 | 0.08 | 0.18 | 0.17 | 91 | 1005.8 |
| 20260506183003 | 62 | 179 | 2.6 | 4.3 | 0.08 | 0.17 | 0.16 | 91 | 1005.9 |
| 20260506182503 | 62 | 175 | 1.7 | 3.5 | 0.08 | 0.16 | 0.15 | 91 | 1006.0 |
| 20260506182003 | 62 | 251 | 0.9 | 2.6 | 0.09 | 0.16 | 0.15 | 91 | 1006.0 |
| 20260506181508 | 62 | 145 | 0.0 | 0.0 | 0.10 | 0.16 | 0.15 | 91 | 1005.9 |
| 20260506181004 | 61 | 130 | 0.0 | 0.9 | 0.10 | 0.15 | 0.14 | 91 | 1005.9 |
| 20260506180504 | 61 | 153 | 0.0 | 0.9 | 0.11 | 0.15 | 0.14 | 91 | 1006.2 |
| 20260506180011 | 61 | 153 | 0.0 | 0.9 | 0.12 | 0.15 | 0.14 | 90 | 1006.4 |
| 20260506175505 | 61 | 202 | 0.9 | 0.9 | 0.12 | 0.14 | 0.13 | 90 | 1006.5 |
| 20260506175004 | 61 | 171 | 0.0 | 2.6 | 0.11 | 0.13 | 0.12 | 90 | 1006.6 |
| 20260506174511 | 61 | 172 | 0.0 | 2.6 | 0.10 | 0.12 | 0.11 | 90 | 1006.6 |
| 20260506174004 | 61 | 162 | 0.9 | 2.6 | 0.09 | 0.11 | 0.10 | 89 | 1006.7 |
| 20260506173507 | 62 | 207 | 0.9 | 2.6 | 0.09 | 0.10 | 0.09 | 89 | 1006.8 |
| 20260506173020 | 62 | 203 | 0.0 | 4.3 | 0.08 | 0.09 | 0.08 | 89 | 1006.8 |
| 20260506172507 | 62 | 161 | 1.7 | 4.3 | 0.07 | 0.08 | 0.07 | 88 | 1006.9 |
| 20260506172004 | 62 | 179 | 0.0 | 2.6 | 0.06 | 0.07 | 0.06 | 87 | 1006.9 |
| 20260506171507 | 62 | 210 | 1.7 | 5.2 | 0.05 | 0.06 | 0.05 | 86 | 1007.0 |
| 20260506171006 | 62 | 218 | 0.9 | 5.2 | 0.04 | 0.05 | 0.04 | 86 | 1007.1 |
| 20260506170502 | 62 | 183 | 1.7 | 5.2 | 0.03 | 0.04 | 0.03 | 84 | 1007.0 |
| 20260506170008 | 63 | 202 | 2.6 | 5.2 | 0.02 | 0.03 | 0.02 | 84 | 1007.2 |
| 20260506165503 | 63 | 242 | 1.7 | 6.1 | 0.01 | 0.02 | 0.01 | 83 | 1007.1 |
| 20260506165004 | 63 | 220 | 3.5 | 8.7 | 0.01 | 0.02 | 0.01 | 82 | 1007.0 |
| 20260506164513 | 63 | 195 | 3.5 | 8.7 | 0.01 | 0.02 | 0.01 | 82 | 1007.0 |
| 20260506164003 | 64 | 229 | 2.6 | 7.8 | 0.01 | 0.02 | 0.01 | 81 | 1007.1 |
| 20260506163506 | 64 | 156 | 2.6 | 7.8 | 0.00 | 0.01 | 0.00 | 80 | 1007.1 |
| 20260506163015 | 64 | 233 | 3.5 | 7.8 | 0.00 | 0.01 | 0.00 | 80 | 1007.1 |
| 20260506162506 | 64 | 221 | 2.6 | 7.0 | 0.00 | 0.01 | 0.00 | 80 | 1007.1 |
| 20260506162009 | 64 | 216 | 5.2 | 8.7 | 0.00 | 0.01 | 0.00 | 79 | 1007.1 |
| 20260506161518 | 64 | 198 | 3.5 | 12.2 | 0.00 | 0.01 | 0.00 | 78 | 1007.2 |
| 20260506160505 | 64 | 228 | 6.1 | 11.3 | 0.00 | 0.01 | 0.00 | 77 | 1007.3 |
| 20260506160004 | 64 | 203 | 5.2 | 10.4 | 0.00 | 0.01 | 0.00 | 78 | 1007.4 |
| 20260506155503 | 64 | 240 | 4.3 | 11.3 | 0.00 | 0.01 | 0.00 | 78 | 1007.5 |
| 20260506155004 | 64 | 200 | 3.5 | 12.2 | 0.00 | 0.01 | 0.00 | 78 | 1007.5 |
| 20260506154516 | 64 | 208 | 6.1 | 12.2 | 0.00 | 0.01 | 0.00 | 79 | 1007.8 |
| 20260506154006 | 64 | 208 | 6.1 | 11.3 | 0.00 | 0.01 | 0.00 | 78 | 1007.7 |
| 20260506153504 | 64 | 214 | 6.1 | 12.2 | 0.00 | 0.01 | 0.00 | 78 | 1007.9 |
| 20260506153011 | 64 | 202 | 4.3 | 12.2 | 0.00 | 0.01 | 0.00 | 79 | 1008.0 |
| 20260506152507 | 64 | 154 | 6.1 | 12.2 | 0.00 | 0.01 | 0.00 | 78 | 1008.1 |
| 20260506152012 | 64 | 183 | 6.1 | 14.8 | 0.00 | 0.01 | 0.00 | 78 | 1008.2 |
| 20260506151517 | 63 | 177 | 6.1 | 14.8 | 0.00 | 0.01 | 0.00 | 79 | 1008.2 |
| 20260506151008 | 64 | 212 | 6.1 | 14.8 | 0.00 | 0.01 | 0.00 | 78 | 1008.1 |
| 20260506150508 | 64 | 194 | 4.3 | 8.7 | 0.00 | 0.01 | 0.00 | 79 | 1008.2 |
| 20260506150021 | 63 | 219 | 3.5 | 11.3 | 0.00 | 0.01 | 0.00 | 79 | 1008.2 |
| 20260506145005 | 63 | 184 | 7.0 | 9.6 | 0.00 | 0.01 | 0.00 | 78 | 1008.3 |
| 20260506144505 | 63 | 214 | 4.3 | 11.3 | 0.00 | 0.01 | 0.00 | 79 | 1008.2 |
| 20260506144006 | 63 | 198 | 5.2 | 11.3 | 0.00 | 0.01 | 0.00 | 78 | 1008.3 |
| 20260506143503 | 63 | 195 | 5.2 | 11.3 | 0.00 | 0.01 | 0.00 | 79 | 1008.4 |
| 20260506143009 | 63 | 219 | 5.2 | 11.3 | 0.00 | 0.01 | 0.00 | 79 | 1008.3 |
| 20260506142504 | 63 | 230 | 3.5 | 11.3 | 0.00 | 0.01 | 0.00 | 79 | 1008.1 |
| 20260506142008 | 63 | 182 | 4.3 | 10.4 | 0.00 | 0.01 | 0.00 | 78 | 1007.9 |
| 20260506141516 | 63 | 205 | 6.1 | 10.4 | 0.00 | 0.01 | 0.00 | 78 | 1008.1 |
| 20260506141009 | 64 | 245 | 6.1 | 9.6 | 0.00 | 0.01 | 0.00 | 79 | 1008.3 |
| 20260506140018 | 63 | 195 | 3.5 | 9.6 | 0.00 | 0.01 | 0.00 | 79 | 1008.2 |
| 20260506134525 | 62 | 194 | 5.2 | 7.8 | 0.00 | 0.01 | 0.00 | 81 | 1008.1 |
| 20260506133509 | 62 | 248 | 2.6 | 8.7 | 0.00 | 0.01 | 0.00 | 81 | 1008.0 |
| 20260506133006 | 62 | 222 | 3.5 | 8.7 | 0.00 | 0.01 | 0.00 | 81 | 1007.9 |
| 20260506132003 | 61 | 187 | 5.2 | 7.8 | 0.00 | 0.01 | 0.00 | 81 | 1008.1 |
| 20260506131527 | 61 | 184 | 2.6 | 6.1 | 0.00 | 0.01 | 0.00 | 82 | 1008.1 |
| 20260506125011 | 60 | 207 | 4.3 | 8.7 | 0.00 | 0.01 | 0.00 | 83 | 1008.5 |
| 20260506124521 | 60 | 194 | 5.2 | 11.3 | 0.00 | 0.01 | 0.00 | 82 | 1008.5 |
| 20260506124010 | 60 | 250 | 3.5 | 13.0 | 0.00 | 0.01 | 0.00 | 83 | 1008.6 |
| 20260506123508 | 60 | 217 | 4.3 | 13.0 | 0.00 | 0.01 | 0.00 | 83 | 1008.6 |
| 20260506123024 | 60 | 191 | 7.0 | 13.0 | 0.00 | 0.01 | 0.00 | 83 | 1008.6 |
| 20260506122511 | 60 | 214 | 6.1 | 11.3 | 0.00 | 0.01 | 0.00 | 83 | 1008.6 |
| 20260506122010 | 60 | 203 | 7.8 | 12.2 | 0.00 | 0.01 | 0.00 | 83 | 1008.6 |
| 20260506121512 | 60 | 167 | 6.1 | 12.2 | 0.00 | 0.01 | 0.00 | 83 | 1008.7 |
| 20260506120018 | 60 | 219 | 6.1 | 11.3 | 0.00 | 0.01 | 0.00 | 83 | 1008.4 |
| 20260506114007 | 59 | 211 | 6.1 | 13.0 | 0.00 | 0.01 | 0.00 | 84 | 1008.4 |
| 20260506113024 | 59 | 187 | 4.3 | 10.4 | 0.00 | 0.01 | 0.00 | 83 | 1008.6 |
| 20260506112506 | 59 | 194 | 4.3 | 10.4 | 0.00 | 0.01 | 0.00 | 83 | 1008.6 |
| 20260506105505 | 59 | 202 | 6.1 | 12.2 | 0.00 | 0.01 | 0.00 | 83 | 1008.7 |
| 20260506104003 | 59 | 214 | 5.2 | 9.6 | 0.00 | 0.01 | 0.00 | 83 | 1008.7 |
| 20260506103503 | 58 | 207 | 6.1 | 11.3 | 0.00 | 0.01 | 0.00 | 83 | 1008.7 |
| 20260506103004 | 58 | 184 | 6.1 | 11.3 | 0.00 | 0.01 | 0.00 | 84 | 1008.7 |
| 20260506102503 | 58 | 214 | 5.2 | 8.7 | 0.00 | 0.01 | 0.00 | 84 | 1008.5 |
| 20260506102004 | 58 | 255 | 2.6 | 7.8 | 0.00 | 0.01 | 0.00 | 84 | 1008.6 |
| 20260506101516 | 58 | 193 | 4.3 | 7.8 | 0.00 | 0.01 | 0.00 | 84 | 1008.6 |
| 20260506101003 | 58 | 176 | 3.5 | 7.0 | 0.00 | 0.01 | 0.00 | 84 | 1008.5 |
| 20260506100506 | 58 | 181 | 3.5 | 6.1 | 0.00 | 0.01 | 0.00 | 84 | 1008.6 |
| 20260506100007 | 58 | 248 | 3.5 | 6.1 | 0.00 | 0.01 | 0.00 | 84 | 1008.6 |
| 20260506095508 | 58 | 259 | 3.5 | 7.0 | 0.00 | 0.01 | 0.00 | 84 | 1008.6 |
| 20260506095008 | 58 | 216 | 2.6 | 7.0 | 0.00 | 0.01 | 0.00 | 84 | 1008.4 |
| 20260506094519 | 58 | 172 | 3.5 | 7.0 | 0.00 | 0.01 | 0.00 | 83 | 1008.3 |
| 20260506094007 | 58 | 214 | 3.5 | 6.1 | 0.00 | 0.01 | 0.00 | 83 | 1008.4 |
| 20260506093507 | 58 | 228 | 3.5 | 6.1 | 0.00 | 0.01 | 0.00 | 83 | 1008.3 |
| 20260506092505 | 58 | 162 | 2.6 | 8.7 | 0.00 | 0.01 | 0.00 | 83 | 1008.6 |
| 20260506092003 | 58 | 225 | 2.6 | 8.7 | 0.00 | 0.01 | 0.00 | 83 | 1008.5 |
| 20260506091505 | 58 | 198 | 2.6 | 5.2 | 0.00 | 0.01 | 0.00 | 83 | 1008.6 |
| 20260506091003 | 58 | 278 | 2.6 | 4.3 | 0.00 | 0.01 | 0.00 | 83 | 1008.5 |
| 20260506090505 | 57 | 170 | 1.7 | 5.2 | 0.00 | 0.01 | 0.00 | 83 | 1008.5 |
| 20260506090005 | 57 | 224 | 1.7 | 5.2 | 0.00 | 0.01 | 0.00 | 84 | 1008.6 |
| 20260506085508 | 57 | 249 | 1.7 | 3.5 | 0.00 | 0.01 | 0.00 | 84 | 1008.6 |
| 20260506085002 | 57 | 238 | 0.9 | 4.3 | 0.00 | 0.01 | 0.00 | 83 | 1008.6 |
| 20260506084511 | 57 | 227 | 1.7 | 4.3 | 0.00 | 0.01 | 0.00 | 84 | 1008.6 |
| 20260506084007 | 57 | 238 | 1.7 | 3.5 | 0.00 | 0.01 | 0.00 | 84 | 1008.7 |
| 20260506083504 | 56 | 247 | 0.9 | 1.7 | 0.00 | 0.01 | 0.00 | 84 | 1008.8 |
| 20260506083015 | 57 | 220 | 0.0 | 3.5 | 0.00 | 0.01 | 0.00 | 83 | 1008.6 |
| 20260506082504 | 57 | 236 | 0.9 | 3.5 | 0.00 | 0.01 | 0.00 | 83 | 1008.6 |
| 20260506082010 | 56 | 205 | 1.7 | 2.6 | 0.00 | 0.01 | 0.00 | 83 | 1008.6 |
| 20260506081526 | 57 | 245 | 0.0 | 2.6 | 0.00 | 0.01 | 0.00 | 83 | 1008.7 |
| 20260506081004 | 57 | 248 | 0.9 | 2.6 | 0.00 | 0.01 | 0.00 | 83 | 1008.6 |
| 20260506080503 | 57 | 256 | 1.7 | 2.6 | 0.00 | 0.01 | 0.00 | 83 | 1008.7 |
| 20260506073504 | 56 | 218 | 0.0 | 0.9 | 0.00 | 0.01 | 0.00 | 83 | 1008.6 |
| 20260506073013 | 57 | 216 | 0.0 | 0.0 | 0.00 | 0.01 | 0.00 | 82 | 1008.7 |
| 20260506072504 | 57 | 216 | 0.0 | 0.9 | 0.00 | 0.01 | 0.00 | 81 | 1008.7 |
| 20260506072008 | 57 | 216 | 0.0 | 0.9 | 0.00 | 0.01 | 0.00 | 81 | 1008.7 |
| 20260506071520 | 58 | 216 | 0.0 | 0.9 | 0.00 | 0.01 | 0.00 | 80 | 1008.8 |
| 20260506071007 | 58 | 216 | 0.0 | 0.9 | 0.00 | 0.01 | 0.00 | 79 | 1008.7 |